Flag for Dominican Republic Weather past 2 weeks in Santiago de los Caballeros, Dominican Republic

Now
90 °F

Scattered clouds.


Feels Like: 93 °F
Forecast: N/A
Wind: 25 mph from Southeast

Location: Santiago


UV Index: N/A

Visibility: N/A


Pressure: 29.95 "Hg

Humidity: 49%

Dew point: 68 °F

Location of Santiago de los CaballerosLocation

Historic Weather in Santiago de los Caballeros

°F

Santiago de los Caballeros temperature yesterday

Maximum temperature yesterday: 88 °F (at 2:00 PM)
Minimum temperature yesterday: 70 °F (at 3:00 AM)
Average temperature yesterday: 78 °F

Past Weeks' High & Low Weather Summary

 TemperatureHumidityPressure
High91 °F (Apr 9, 3:00 PM)100% (Apr 7, 3:00 AM)30.12 "Hg (Apr 7, 3:00 AM)
Low68 °F (Apr 13, 4:00 AM)33% (Apr 13, 1:00 PM)29.83 "Hg (Apr 15, 4:00 PM)
Average79 °F75%29.99 "Hg
* Reported Apr 5 3:00 PM — Apr 20 3:00 PM, Santiago de los Caballeros, Weather by CustomWeather, © 2014

Note: Actual official high and low records may vary slightly from our data, if they occured in-between our weather recording intervals... More about our weather records

Advertising

Historic Weather Conditions — Data for Previous 24 hours

 ConditionsComfort  
Time TempWeatherWind HumidityBarometerVisibility
3:00 PM
Apr 20
90 °FScattered clouds.25 mph49%29.95 "HgN/A
2:00 PM88 °FScattered clouds.21 mph52%29.98 "HgN/A
1:00 PM84 °FBroken clouds.12 mph74%30.07 "HgN/A
12:00 PM86 °FScattered clouds.17 mph59%30.01 "HgN/A
11:00 AM84 °FScattered clouds.16 mph62%30.04 "HgN/A
10:00 AM81 °FScattered clouds.20 mph74%30.04 "HgN/A
9:00 AM79 °FPartly sunny.17 mph79%30.04 "HgN/A
8:00 AM75 °FPassing clouds.15 mph89%30.04 "HgN/A
7:00 AM72 °FScattered clouds.7 mph94%30.01 "HgN/A
6:00 AM72 °FPassing clouds.7 mph94%30.01 "HgN/A
5:00 AM72 °FPassing clouds.7 mph94%29.98 "HgN/A
4:00 AM72 °FPassing clouds.9 mph94%29.98 "HgN/A
3:00 AM73 °FPassing clouds.10 mph94%29.98 "HgN/A
2:00 AM73 °FPassing clouds.12 mph94%29.98 "HgN/A
1:00 AM75 °FPassing clouds.8 mph89%30.01 "HgN/A
12:00 AM75 °FPassing clouds.8 mph89%30.01 "HgN/A
11:00 PM
Apr 19
75 °FPassing clouds.14 mph89%30.01 "HgN/A
10:00 PM75 °FPassing clouds.12 mph89%30.01 "HgN/A
9:00 PM77 °FPassing clouds.9 mph83%29.98 "HgN/A
8:00 PM79 °FPassing clouds.10 mph79%29.98 "HgN/A
7:00 PM81 °FPartly sunny.14 mph74%29.95 "HgN/A
6:00 PM86 °FPartly sunny.15 mph62%29.92 "HgN/A
5:00 PM88 °FScattered clouds.15 mph55%29.92 "HgN/A
4:00 PM88 °FScattered clouds.16 mph55%29.92 "HgN/A
Weather by CustomWeather, © 2014

See weather overview